STARLINK-2663 (48443 NORAD) Tracking and Keplerian Element Data

This shows tracking and keplerian element data for the satellite.

Feedback or suggestion? Click here.




ElementValue
Catalog48443
NameSTARLINK-2663
Epoch Orbit365
Epoch Day210.91668981
Epoch Year2021
RAAN181.2545
Inclination53.0463
Eccentricity0.000144
Argument of Perigee74.912
Mean Anonmoly169.9163
Mean Motion15.27831763
Decay Rate-0.0084072
L11 48443U 21040R 21210.91668981 -.00840720 00000-0 -33088-1 0 9990
L22 48443 53.0463 181.2545 0001440 74.9120 169.9163 15.27831763 3656

Live tracking and technical data element details for STARLINK-2663 (NORAD 48443). STARLINK-2663 can be tracked NOW for your location showing map with azimuth and elevation plus other details from your city location.

Track the satellite on the map from your city or location and see movement details for azimuth, elevation, latitude, longitude, range, height, and movement on the map or in text.







IsCatalogInMostPopularTable: catalog: 48443, numindb: 28
Update: records affected: 1



GetName: 48443 STARLINK-2663

Hit Count: updated at: Sat, 31 Jul 2021 14:52:49 GMT